This is the latest recevied weather packets stored in our database for station/object KG5TTF. If no packets are shown the sender has not sent any weather packets the latest 10 day(s).
| Time | Temp. | Humidity | Pressure | Rain* | Wind** | Luminosity | Snow |
|---|---|---|---|---|---|---|---|
| 1777409921 | 11.11° C | 44% | 1020.5 hPa | 0 mm | - | 457 W/m² | - |
| 1777409616 | 11.11° C | 43% | 1020.4 hPa | 0 mm | - | 458 W/m² | - |
| 1777409312 | 11.67° C | 43% | 1020.4 hPa | 0 mm | - | 592 W/m² | - |
| 1777409008 | 11.11° C | 44% | 1020.4 hPa | 0 mm | - | 324 W/m² | - |
| 1777408705 | 11.67° C | 44% | 1020.5 hPa | 0 mm | - | 272 W/m² | - |
| 1777408401 | 11.11° C | 45% | 1020.4 hPa | 0 mm | - | 798 W/m² | - |
| 1777408095 | 12.22° C | 43% | 1020.4 hPa | 0 mm | - | 259 W/m² | - |
| 1777407791 | 11.67° C | 45% | 1020.3 hPa | 0 mm | - | 863 W/m² | - |
| 1777407487 | 11.67° C | 46% | 1020.3 hPa | 0 mm | - | 807 W/m² | - |
| 1777407182 | 11.67° C | 45% | 1020 hPa | 0 mm | - | 915 W/m² | - |
| 1777406877 | 11.67° C | 46% | 1020.2 hPa | 0 mm | - | 882 W/m² | - |
| 1777406572 | 11.11° C | 47% | 1019.9 hPa | 0 mm | - | 885 W/m² | - |
| 1777406268 | 10.56° C | 47% | 1020 hPa | 0 mm | - | 899 W/m² | - |
| 1777405967 | 11.11° C | 49% | 1019.8 hPa | 0 mm | - | 784 W/m² | - |
| 1777405664 | 11.11° C | 51% | 1020 hPa | 0 mm | - | 899 W/m² | - |
| 1777405361 | 11.11° C | 49% | 1019.9 hPa | 0 mm | - | 907 W/m² | - |
| 1777405057 | 10.56° C | 50% | 1020 hPa | 0 mm | - | 931 W/m² | - |
| 1777404751 | 10.56° C | 50% | 1019.8 hPa | 0 mm | - | 860 W/m² | - |
| 1777404448 | 10.56° C | 53% | 1019.8 hPa | 0 mm | - | 971 W/m² | - |
| 1777404144 | 10° C | 57% | 1019.7 hPa | 0 mm | - | 1019 W/m² | - |
| 1777403840 | 10° C | 59% | 1019.6 hPa | 0 mm | - | 1091 W/m² | - |
| 1777403535 | 10.56° C | 57% | 1019.8 hPa | 0 mm | - | 979 W/m² | - |
| 1777403235 | 10° C | 55% | 1019.7 hPa | 0 mm | - | 957 W/m² | - |
| 1777402930 | 9.44° C | 58% | 1019.6 hPa | 0 mm | - | 954 W/m² | - |
| 1777402626 | 8.89° C | 58% | 1019.4 hPa | 0 mm | - | 686 W/m² | - |
* Rain latest hour (hover to see other rain measurements)
** Current wind speed in m/s (hover to see current wind gust speed)